KUIPER-00612

导读

**KUIPER-00612(NORAD ID: 69772)卫星摘要** 该卫星是美国亚马逊公司“柯伊伯计划(Project Kuiper,现又称亚马逊低轨星座/Amazon Leo)”的组网卫星之一,属于低地球轨道(LEO)宽带通信卫星,归属美国运营。该卫星所在星座计划部署超3200颗低轨卫星,旨在构建覆盖全球的卫星互联网通信基础设施,可面向偏远地区、航空航海等场景提供高速网络服务。KUIPER-00612于2026年5月底至7月间由亚马逊通过ULA Atlas V或猎鹰9号火箭发射入轨,运行于高度约590-630公里、倾角约51.9°的低轨轨道,是亚马逊为满足FCC2026年中期发射节点要求批量部署的组网卫星之一,目前处于在轨部署阶段。(148字)

Basic Information
目录编号:
69772
目录名称:
KUIPER-00612
国际标识:
2026-151K
轨道中心:
EARTH
卫星名称:
KUIPER-00612
卫星全名:
KUIPER-00612
卫星状态:
在轨 (已飞行12 天)
发射日期:
2026-07-02 UTC
国别 :
美国 (US)
星等 :
--
Orbit Information
数据来源 国际轨道数据 AOE轨道数据
星历时间 2026-07-13T21:22:31+0800
14小时前
查看轨道信息
2026-07-10T07:00:00+0800
4天前
查看轨道信息
半长轴 6830.415km 6830.571km
偏心率 0.0003781 0.0003795
轨道倾角 51.878° 51.879°
近地点辐角 107.093° 100.775°
升交点赤经 188.259° 205.673°
平近点角 253.047° 121.312°
近地点 449.695km 449.841km
远地点 454.861km 455.027km
周期 93.633分钟 93.637分钟
每日圈数 15.379143 15.378618
Detailed Information
使用方式:
暂无
2D Orbit Map
3D Orbit Map
Orbit Altitude Analysis Chart
Orbit Inclination Analysis Chart
Orbit Comprehensive Analysis Chart
View Comprehensive Chart